星链-36904(STARLINK-36904)

导读 | 豆包AI

STARLINK-36904(NORAD编号67977)是美国太空探索技术公司(SpaceX)星链(Starlink)星座中的v1.5版本卫星,于2021年11月13日发射入轨,目前仍正常工作。该卫星运行在近地轨道,轨道倾角53.192°,近地点约150公里,远地点约162公里,绕行周期约87.6分钟。作为星链项目的组成部分,它依托低轨布局为全球提供高速、低延迟的宽带互联网服务,可支持流媒体、在线游戏等应用,由SpaceX自主设计制造运营。

基本信息
目录编号:
67977
目录名称:
STARLINK-36904
国际标识:
2026-038S
轨道中心:
EARTH
卫星名称:
星链-36904
卫星全名:
星链-36904(STARLINK-36904)
卫星状态:
在轨 (已飞行89 天)
发射日期:
2026-02-25 UTC
国别 :
美国 (US)
星等 :
--
轨道信息
数据来源 国际轨道数据
星历时间: 2026-05-24T08:06:07+0800
1天前
查看轨道信息
半长轴: 6843.672km
偏心率: 0.0001464
轨道倾角: 97.284°
近地点辐角 95.877°
升交点赤经 154.084°
平近点角 264.264°
近地点: 464.533km
远地点: 466.537km
周期: 93.906分钟
每日圈数: 15.334478
详细信息
固有亮度:
5
最大亮度:
2.5
卫星平台:
Starlink V1.0
覆盖范围:
全球
运营商:
太空探索技术公司
运营商所在国:
美国
制造商(研发单位):
太空探索技术公司
制造商所在国:
美国
使用方式:
暂无
卫星简介
Starlink 计划是 SpaceX 推出的全球卫星互联网项目,通过发射低轨道卫星,为全球尤其是偏远地区提供高速、低延迟的互联网服务。自 2019 年起,Starlink 已部署数千颗卫星,旨在缩小全球数字鸿沟,推动互联网普及。该项目还为军事、航空等行业提供通信支持,带来广泛经济效益。
2D轨道图
3D轨道图
轨道高度分析图
轨道倾角分析图
轨道综合分析图
查看轨道综合分析图